DLH6KK EHAM-EDDM

Flight info

Callsign DLH6KK
Flight time 1h 2m
Altitude 35000
Route EDUPO Z739 MISGO DCT DOJOH DCT DODEN/N0425F330 DCT TABUM DCT BOMBI T104 HAREM/N0393F270 T104 ROKIL ROKIL1A
Aircraft A321/M-SDE3FGHIRWY/LB1

Departure

Time 2026-04-17 12:38
Airport Amsterdam Airport Schiphol (EHAM)

Arrival

Time 2026-04-17 13:41
Airport Munich Airport (EDDM)
Time Latitude Longitude Altitude Speed Heading
2026-04-17 12:16 52.30786 4.76867 8 ft 0 kts 43°
2026-04-17 12:30 52.30785 4.76866 8 ft 1 kts 43°
2026-04-17 12:30 52.30775 4.76850 8 ft 2 kts 42°
2026-04-17 12:31 52.30764 4.76834 9 ft 2 kts 43°
2026-04-17 12:31 52.30753 4.76817 8 ft 2 kts 43°
2026-04-17 12:31 52.30741 4.76801 8 ft 2 kts 43°
2026-04-17 12:31 52.30732 4.76782 8 ft 2 kts 63°
2026-04-17 12:32 52.30727 4.76759 8 ft 2 kts 76°
2026-04-17 12:32 52.30725 4.76736 8 ft 1 kts 90°
2026-04-17 12:32 52.30725 4.76725 8 ft 1 kts 95°
2026-04-17 12:32 52.30725 4.76723 8 ft 0 kts 94°
2026-04-17 12:34 52.30724 4.76736 8 ft 4 kts 95°
2026-04-17 12:34 52.30700 4.76823 8 ft 10 kts 137°
2026-04-17 12:35 52.30657 4.76923 8 ft 11 kts 99°
2026-04-17 12:35 52.30656 4.76935 8 ft 0 kts 98°
2026-04-17 12:35 52.30654 4.76959 8 ft 3 kts 98°
2026-04-17 12:37 52.30338 4.77360 2 ft 15 kts 210°
2026-04-17 12:37 52.30253 4.77218 0 ft 24 kts 238°
2026-04-17 12:38 52.30083 4.76780 -3 ft 80 kts 237°
2026-04-17 12:38 52.29659 4.75674 -3 ft 147 kts 237°
2026-04-17 12:38 52.29075 4.74147 449 ft 163 kts 235°
2026-04-17 12:38 52.28479 4.72600 1134 ft 164 kts 236°
2026-04-17 12:39 52.27876 4.71047 1868 ft 164 kts 237°
2026-04-17 12:39 52.27246 4.69451 2328 ft 175 kts 232°
2026-04-17 12:39 52.26226 4.68292 2598 ft 188 kts 195°
2026-04-17 12:39 52.24891 4.68427 2882 ft 205 kts 165°
2026-04-17 12:40 52.23497 4.69238 3144 ft 224 kts 154°
2026-04-17 12:40 52.22360 4.70990 3739 ft 232 kts 124°
2026-04-17 12:40 52.21641 4.73325 4464 ft 233 kts 117°
2026-04-17 12:40 52.20975 4.75723 5138 ft 236 kts 118°
2026-04-17 12:41 52.20209 4.78161 5592 ft 250 kts 121°
2026-04-17 12:41 52.19351 4.80758 5989 ft 267 kts 121°
2026-04-17 12:41 52.18457 4.83457 6610 ft 276 kts 121°
2026-04-17 12:41 52.17556 4.86194 7388 ft 279 kts 121°
2026-04-17 12:42 52.16641 4.88986 8158 ft 283 kts 121°
2026-04-17 12:42 52.15840 4.91431 8816 ft 286 kts 121°
2026-04-17 12:42 52.15541 4.92347 9062 ft 288 kts 121°
2026-04-17 12:42 52.14595 4.95236 9784 ft 292 kts 121°
2026-04-17 12:43 52.13634 4.98168 10492 ft 297 kts 121°
2026-04-17 12:43 52.12644 5.01177 10939 ft 311 kts 121°
2026-04-17 12:43 52.11603 5.04335 11268 ft 328 kts 121°
2026-04-17 12:43 52.10506 5.07670 11820 ft 337 kts 121°
2026-04-17 12:44 52.09403 5.11025 12492 ft 340 kts 121°
2026-04-17 12:44 52.08297 5.14388 12981 ft 343 kts 121°
2026-04-17 12:44 52.07161 5.17834 13177 ft 344 kts 121°
2026-04-17 12:44 52.06038 5.21236 13188 ft 343 kts 121°
2026-04-17 12:45 52.04913 5.24634 13203 ft 343 kts 121°
2026-04-17 12:45 52.03788 5.28024 13201 ft 343 kts 121°
2026-04-17 12:45 52.02654 5.31444 13193 ft 343 kts 121°
2026-04-17 12:45 52.01516 5.34865 13191 ft 343 kts 121°
2026-04-17 12:46 52.00391 5.38246 13191 ft 343 kts 121°
2026-04-17 12:46 51.99259 5.41646 13203 ft 344 kts 121°
2026-04-17 12:46 51.98117 5.45071 13199 ft 344 kts 121°
2026-04-17 12:46 51.96984 5.48458 13187 ft 344 kts 121°
2026-04-17 12:47 51.95848 5.51850 13192 ft 343 kts 121°
2026-04-17 12:47 51.94710 5.55246 13197 ft 343 kts 121°
2026-04-17 12:47 51.93572 5.58636 13193 ft 343 kts 121°
2026-04-17 12:47 51.92442 5.62001 13194 ft 343 kts 121°
2026-04-17 12:48 51.91306 5.65379 13191 ft 343 kts 122°
2026-04-17 12:48 51.90155 5.68793 13194 ft 342 kts 122°
2026-04-17 12:48 51.89012 5.72182 13201 ft 342 kts 122°
2026-04-17 12:48 51.87878 5.75540 13191 ft 342 kts 122°
2026-04-17 12:49 51.86738 5.78907 13190 ft 343 kts 122°
2026-04-17 12:49 51.85600 5.82268 13196 ft 343 kts 122°
2026-04-17 12:49 51.84454 5.85648 13195 ft 343 kts 122°
2026-04-17 12:49 51.83307 5.89021 13198 ft 343 kts 122°
2026-04-17 12:50 51.82162 5.92384 13193 ft 343 kts 122°
2026-04-17 12:50 51.81014 5.95756 13193 ft 343 kts 122°
2026-04-17 12:50 51.79866 5.99122 13197 ft 343 kts 122°
2026-04-17 12:50 51.78714 6.02498 13196 ft 343 kts 122°
2026-04-17 12:51 51.77560 6.05869 13193 ft 343 kts 122°
2026-04-17 12:51 51.76407 6.09237 13201 ft 343 kts 122°
2026-04-17 12:51 51.75260 6.12583 13199 ft 343 kts 122°
2026-04-17 12:51 51.74112 6.15927 13194 ft 343 kts 122°
2026-04-17 12:52 51.72955 6.19288 13192 ft 343 kts 122°
2026-04-17 12:52 51.71789 6.22673 13193 ft 343 kts 121°
2026-04-17 12:52 51.70638 6.26015 13197 ft 343 kts 121°
2026-04-17 12:52 51.69485 6.29353 13200 ft 342 kts 121°
2026-04-17 12:53 51.68317 6.32731 13383 ft 349 kts 121°
2026-04-17 12:53 51.67139 6.36131 14061 ft 351 kts 121°
2026-04-17 12:53 51.65957 6.39539 14793 ft 352 kts 121°
2026-04-17 12:53 51.64745 6.42945 15444 ft 354 kts 124°
2026-04-17 12:54 51.63363 6.46228 16070 ft 356 kts 129°
2026-04-17 12:54 51.61810 6.49292 16671 ft 359 kts 133°
2026-04-17 12:54 51.60142 6.52323 17272 ft 362 kts 134°
2026-04-17 12:54 51.58481 6.55307 17843 ft 366 kts 134°
2026-04-17 12:55 51.56767 6.58383 18423 ft 369 kts 134°
2026-04-17 12:55 51.55064 6.61440 18972 ft 373 kts 134°
2026-04-17 12:55 51.53325 6.64565 19517 ft 377 kts 134°
2026-04-17 12:55 51.51590 6.67681 20050 ft 380 kts 134°
2026-04-17 12:56 51.49825 6.70849 20573 ft 384 kts 134°
2026-04-17 12:56 51.48028 6.74072 21088 ft 387 kts 134°
2026-04-17 12:56 51.46245 6.77264 21582 ft 391 kts 134°
2026-04-17 12:56 51.44414 6.80537 22073 ft 394 kts 134°
2026-04-17 12:57 51.42604 6.83770 22544 ft 397 kts 134°
2026-04-17 12:57 51.40741 6.87066 23012 ft 400 kts 135°
2026-04-17 12:57 51.38787 6.90214 23453 ft 403 kts 138°
2026-04-17 12:57 51.36771 6.93354 23915 ft 406 kts 138°
2026-04-17 12:58 51.34745 6.96496 24352 ft 409 kts 138°
2026-04-17 12:58 51.32701 6.99663 24801 ft 412 kts 138°
2026-04-17 12:58 51.30633 7.02864 25222 ft 415 kts 137°
2026-04-17 12:58 51.28565 7.06064 25621 ft 419 kts 137°
2026-04-17 12:59 51.26485 7.09277 26022 ft 422 kts 137°
2026-04-17 12:59 51.24353 7.12570 26415 ft 425 kts 137°
2026-04-17 12:59 51.22233 7.15840 26782 ft 428 kts 137°
2026-04-17 12:59 51.20093 7.19132 27162 ft 431 kts 137°
2026-04-17 13:00 51.17943 7.22437 27536 ft 434 kts 137°
2026-04-17 13:00 51.15768 7.25777 27899 ft 436 kts 137°
2026-04-17 13:00 51.13575 7.29140 28251 ft 439 kts 137°
2026-04-17 13:00 51.11355 7.32541 28593 ft 442 kts 137°
2026-04-17 13:01 51.09126 7.35948 28920 ft 445 kts 137°
2026-04-17 13:01 51.06889 7.39362 29242 ft 448 kts 137°
2026-04-17 13:01 51.04640 7.42791 29555 ft 451 kts 137°
2026-04-17 13:01 51.02362 7.46259 29854 ft 454 kts 136°
2026-04-17 13:02 51.00090 7.49716 30159 ft 457 kts 137°
2026-04-17 13:02 50.97791 7.53205 30481 ft 459 kts 136°
2026-04-17 13:02 50.95487 7.56698 30895 ft 458 kts 136°
2026-04-17 13:02 50.93205 7.60153 31335 ft 457 kts 136°
2026-04-17 13:03 50.90897 7.63642 31748 ft 456 kts 136°
2026-04-17 13:03 50.88599 7.67111 32109 ft 456 kts 137°
2026-04-17 13:03 50.86328 7.70534 32451 ft 457 kts 137°
2026-04-17 13:03 50.84019 7.74008 32797 ft 456 kts 137°
2026-04-17 13:04 50.81708 7.77471 33167 ft 456 kts 137°
2026-04-17 13:04 50.79418 7.80888 33497 ft 456 kts 137°
2026-04-17 13:04 50.77129 7.84297 33789 ft 456 kts 137°
2026-04-17 13:04 50.74794 7.87768 34056 ft 458 kts 137°
2026-04-17 13:05 50.72486 7.91194 34304 ft 459 kts 137°
2026-04-17 13:05 50.70160 7.94644 34547 ft 461 kts 137°
2026-04-17 13:05 50.67830 7.98093 34784 ft 462 kts 137°
2026-04-17 13:05 50.65502 8.01537 34977 ft 464 kts 137°
2026-04-17 13:06 50.63142 8.05008 35165 ft 465 kts 138°
2026-04-17 13:06 50.58144 8.11375 35202 ft 465 kts 146°
2026-04-17 13:07 50.52720 8.16926 35200 ft 464 kts 149°
2026-04-17 13:07 50.47277 8.22354 35200 ft 464 kts 148°
2026-04-17 13:08 50.41844 8.27786 35196 ft 464 kts 148°
2026-04-17 13:08 50.36431 8.33193 35196 ft 464 kts 148°
2026-04-17 13:09 50.31085 8.38835 35193 ft 464 kts 143°
2026-04-17 13:09 50.26206 8.45412 35198 ft 465 kts 135°
2026-04-17 13:10 50.21805 8.52761 35202 ft 464 kts 131°
2026-04-17 13:10 50.17456 8.60182 35206 ft 464 kts 131°
2026-04-17 13:11 50.13100 8.67545 35199 ft 464 kts 132°
2026-04-17 13:11 50.08721 8.74904 35202 ft 463 kts 132°
2026-04-17 13:12 50.04243 8.82065 35194 ft 463 kts 137°
2026-04-17 13:12 49.99444 8.88866 35200 ft 475 kts 137°
2026-04-17 13:12 49.96987 8.92328 35185 ft 479 kts 137°
2026-04-17 13:13 49.92059 8.99263 35192 ft 480 kts 137°
2026-04-17 13:13 49.87117 9.06206 35186 ft 480 kts 137°
2026-04-17 13:14 49.82216 9.13075 35180 ft 480 kts 137°
2026-04-17 13:14 49.77253 9.20012 35180 ft 479 kts 137°
2026-04-17 13:15 49.72332 9.26873 35172 ft 479 kts 137°
2026-04-17 13:15 49.67405 9.33721 35182 ft 479 kts 137°
2026-04-17 13:16 49.62492 9.40638 35178 ft 479 kts 135°
2026-04-17 13:16 49.57958 9.48206 35186 ft 480 kts 130°
2026-04-17 13:17 49.53603 9.55877 35181 ft 479 kts 130°
2026-04-17 13:17 49.49203 9.63593 35188 ft 479 kts 130°
2026-04-17 13:18 49.44810 9.71262 35189 ft 479 kts 130°
2026-04-17 13:18 49.40424 9.78887 35200 ft 479 kts 130°
2026-04-17 13:19 49.36004 9.86547 35203 ft 478 kts 130°
2026-04-17 13:19 49.31596 9.94152 35205 ft 479 kts 131°
2026-04-17 13:20 49.27185 10.01736 35210 ft 480 kts 131°
2026-04-17 13:20 49.22733 10.09370 35219 ft 480 kts 131°
2026-04-17 13:21 49.18300 10.16947 35213 ft 480 kts 130°
2026-04-17 13:21 49.13875 10.24498 35219 ft 480 kts 131°
2026-04-17 13:22 49.09286 10.31934 35212 ft 480 kts 133°
2026-04-17 13:22 49.04699 10.39251 35212 ft 480 kts 133°
2026-04-17 13:23 49.00082 10.46639 35201 ft 480 kts 132°
2026-04-17 13:23 48.95493 10.53955 35205 ft 480 kts 132°
2026-04-17 13:24 48.90878 10.61300 35198 ft 481 kts 132°
2026-04-17 13:24 48.86270 10.68615 35197 ft 481 kts 133°
2026-04-17 13:25 48.81634 10.75948 35202 ft 481 kts 133°
2026-04-17 13:25 48.77011 10.83223 35208 ft 481 kts 133°
2026-04-17 13:26 48.72402 10.90439 35204 ft 481 kts 133°
2026-04-17 13:26 48.67769 10.97674 35188 ft 468 kts 133°
2026-04-17 13:27 48.65545 11.01132 34824 ft 457 kts 133°
2026-04-17 13:27 48.63341 11.04553 33666 ft 457 kts 133°
2026-04-17 13:27 48.61130 11.07986 31992 ft 467 kts 133°
2026-04-17 13:27 48.58876 11.11448 30669 ft 465 kts 135°
2026-04-17 13:28 48.56427 11.14526 29573 ft 458 kts 143°
2026-04-17 13:28 48.53857 11.17202 28807 ft 443 kts 146°
2026-04-17 13:28 48.51381 11.19822 28077 ft 430 kts 147°
2026-04-17 13:28 48.48743 11.21757 27399 ft 425 kts 161°
2026-04-17 13:29 48.45979 11.23142 27096 ft 410 kts 163°
2026-04-17 13:29 48.43265 11.24404 26310 ft 409 kts 164°
2026-04-17 13:29 48.40550 11.25411 25499 ft 408 kts 175°
2026-04-17 13:29 48.37751 11.25275 24696 ft 403 kts 193°
2026-04-17 13:30 48.35151 11.23873 23888 ft 396 kts 212°
2026-04-17 13:30 48.33009 11.21363 23093 ft 388 kts 231°
2026-04-17 13:30 48.31567 11.18090 22325 ft 380 kts 250°
2026-04-17 13:30 48.30917 11.14302 21542 ft 371 kts 269°
2026-04-17 13:31 48.31152 11.10541 20762 ft 364 kts 289°
2026-04-17 13:31 48.32371 11.07318 19991 ft 358 kts 313°
2026-04-17 13:31 48.34174 11.04829 19230 ft 349 kts 323°
2026-04-17 13:31 48.36214 11.03074 18465 ft 339 kts 339°
2026-04-17 13:32 48.38479 11.02387 17705 ft 332 kts 357°
2026-04-17 13:32 48.40732 11.02823 16949 ft 327 kts 14°
2026-04-17 13:32 48.42757 11.04265 16199 ft 325 kts 32°
2026-04-17 13:32 48.44395 11.06548 15450 ft 324 kts 49°
2026-04-17 13:33 48.45508 11.09457 14664 ft 325 kts 66°
2026-04-17 13:33 48.46023 11.12819 13284 ft 344 kts 85°
2026-04-17 13:33 48.45784 11.16429 11798 ft 360 kts 104°
2026-04-17 13:33 48.44805 11.19870 10324 ft 368 kts 117°
2026-04-17 13:34 48.43603 11.23225 8852 ft 371 kts 117°
2026-04-17 13:34 48.42394 11.26561 7471 ft 369 kts 117°
2026-04-17 13:34 48.41192 11.29896 6410 ft 356 kts 117°
2026-04-17 13:34 48.40057 11.33066 5651 ft 338 kts 117°
2026-04-17 13:35 48.38984 11.36072 5172 ft 315 kts 117°
2026-04-17 13:35 48.38000 11.38830 4971 ft 288 kts 116°
2026-04-17 13:35 48.37097 11.41363 4960 ft 259 kts 116°
2026-04-17 13:35 48.36298 11.43603 4959 ft 236 kts 116°
2026-04-17 13:36 48.35548 11.45711 4954 ft 221 kts 116°
2026-04-17 13:36 48.34854 11.47669 5047 ft 200 kts 114°
2026-04-17 13:36 48.34449 11.49563 4959 ft 185 kts 98°
2026-04-17 13:36 48.34369 11.51454 4708 ft 179 kts 87°
2026-04-17 13:37 48.34468 11.53267 4466 ft 175 kts 81°
2026-04-17 13:37 48.34631 11.55072 4271 ft 173 kts 81°
2026-04-17 13:37 48.34789 11.56870 4030 ft 174 kts 81°
2026-04-17 13:37 48.34932 11.58659 3797 ft 173 kts 81°
2026-04-17 13:38 48.35064 11.60422 3559 ft 164 kts 82°
2026-04-17 13:38 48.35183 11.62098 3431 ft 160 kts 82°
2026-04-17 13:38 48.35285 11.63759 3294 ft 159 kts 82°
2026-04-17 13:38 48.35395 11.65380 3032 ft 155 kts 82°
2026-04-17 13:39 48.35536 11.66970 2770 ft 149 kts 81°
2026-04-17 13:39 48.35651 11.68478 2503 ft 145 kts 81°
2026-04-17 13:39 48.35770 11.69937 2346 ft 137 kts 83°
2026-04-17 13:39 48.35865 11.71386 2189 ft 143 kts 83°
2026-04-17 13:40 48.35970 11.72880 2009 ft 146 kts 82°
2026-04-17 13:40 48.36101 11.74398 1841 ft 143 kts 82°
2026-04-17 13:40 48.36214 11.75890 1639 ft 144 kts 85°
2026-04-17 13:40 48.36322 11.77356 1497 ft 135 kts 83°
2026-04-17 13:41 48.36420 11.78608 1472 ft 101 kts 84°
2026-04-17 13:41 48.36479 11.79401 1468 ft 51 kts 84°
2026-04-17 13:41 48.36508 11.79877 1466 ft 38 kts 92°
2026-04-17 13:41 48.36438 11.80232 1465 ft 34 kts 113°
2026-04-17 13:42 48.36358 11.80494 1464 ft 17 kts 140°
2026-04-17 13:42 48.36287 11.80417 1464 ft 16 kts 262°
2026-04-17 13:42 48.36272 11.80219 1465 ft 19 kts 264°
2026-04-17 13:42 48.36254 11.79986 1467 ft 30 kts 263°
2026-04-17 13:43 48.36228 11.79627 1468 ft 34 kts 264°
2026-04-17 13:43 48.36213 11.79485 1469 ft 5 kts 253°
2026-04-17 13:43 48.36205 11.79444 1470 ft 1 kts 212°
2026-04-17 13:43 48.36128 11.79472 1470 ft 18 kts 170°
2026-04-17 13:44 48.36003 11.79494 1471 ft 17 kts 174°
2026-04-17 13:44 48.35937 11.79494 1471 ft 0 kts 197°
2026-04-17 13:44 48.35934 11.79493 1471 ft 0 kts 197°
2026-04-17 13:45 48.35915 11.79473 1472 ft 10 kts 231°
2026-04-17 13:45 48.35837 11.79387 1473 ft 20 kts 174°
2026-04-17 13:45 48.35700 11.79411 1474 ft 20 kts 174°
2026-04-17 13:45 48.35547 11.79438 1475 ft 21 kts 174°
2026-04-17 13:46 48.35402 11.79461 1476 ft 20 kts 174°
2026-04-17 13:46 48.35325 11.79455 1477 ft 9 kts 222°
2026-04-17 13:46 48.35307 11.79349 1478 ft 10 kts 263°
2026-04-17 13:46 48.35305 11.79326 1478 ft 0 kts 262°